Find Huanjing Jianzai 1B

NORAD ID: 33321 Int'l Des: 2008-041 Owner: ZZWYZ Country: CN operational
LEOCIRCULARRETROGRADESSO

リアルタイム位置

3D地球を読み込み中...

Huanjing Jianzai 1Bについて

説明を読み込み中...

次回通過

Passes for default location (London). Set your location on the main map for personalized predictions.

高度履歴

Loading altitude history...

軌道要素

1 33321U 08041B 26106.94878153 .00000668 00000-0 87124-4 0 9991
2 33321 97.6502 98.5242 0037281 26.7386 333.5740 14.83204515949332
Epoch: Apr 16, 2026 • Age: 13 hours

現在のステータス

高度 595.8 km
速度 7.58 km/s
衛星直下点 15.29°N, 74.45°E
打ち上げ日 Sep 6, 2008
運用期間 17.6 years
タイプ other

技術仕様

分類 Payload
質量 510.00 kg
乾燥質量 510.00 kg
総質量 510.00 kg
長さ 1.40 m
直径 1.00 m
スパン 4.00 m
形状 Box + 2 Pan
製造者 DFHZ
バスタイプ CAST-968
フェーズステータス In Orbit
所有者/国 ZZWYZ/CN

Most Searched